EW8735 Weather Reports


time (UTC)temp
F
wind
direction
speed
knots
gust
knots
rain 1hr
in
rain 24hr
in
rain mn
in
humidity
%
barometer
mb
20260903003054 65 239 0.0 0.0 0.00 0.00 0.00 54 1004.9
20260903001555 65 226 0.0 0.0 0.00 0.00 0.00 54 1004.7
20260903000054 67 257 0.0 0.0 0.00 0.00 0.00 54 1004.5
20260902234612 69 263 0.0 0.0 0.00 0.00 0.00 46 1004.3
20260902233053 69 274 0.0 0.0 0.00 0.00 0.00 44 1004.3
20260902231606 71 254 0.0 0.0 0.00 0.00 0.00 40 1004.2
20260902230105 71 230 0.0 0.0 0.00 0.00 0.00 39 1003.6
20260902224551 73 257 0.0 0.0 0.00 0.00 0.00 38 1003.4
20260902223051 72 259 0.0 0.0 0.00 0.00 0.00 36 1003.2
20260902221551 74 229 0.0 0.0 0.00 0.00 0.00 30 1003.2
20260902220057 76 237 0.0 0.0 0.00 0.00 0.00 28 1002.5
20260902214650 76 237 0.0 0.0 0.00 0.00 0.00 29 1002.3
20260902213048 77 288 0.0 0.0 0.00 0.00 0.00 31 1002.2
20260902211544 75 45 0.0 0.0 0.00 0.00 0.00 34 1002.4
20260902210043 75 45 0.0 0.0 0.00 0.00 0.00 37 1002.4
20260902204540 75 32 0.0 0.0 0.00 0.00 0.00 36 1002.6
20260902203038 74 31 0.0 0.0 0.00 0.00 0.00 38 1002.8
20260902201539 72 33 0.0 0.0 0.00 0.00 0.00 40 1003.0
20260902200035 72 31 0.0 0.0 0.00 0.00 0.00 41 1003.2
20260902194533 72 31 0.0 0.0 0.00 0.00 0.00 41 1003.6
20260902193030 72 31 0.0 0.0 0.00 0.00 0.00 39 1003.6
20260902191532 73 31 0.0 0.0 0.00 0.00 0.00 40 1003.9
20260902190027 73 31 0.0 0.0 0.00 0.00 0.00 39 1004.0
20260902184525 73 29 0.0 0.0 0.00 0.00 0.00 41 1004.1
20260902183024 71 29 0.0 0.0 0.00 0.00 0.00 42 1004.3
20260902181519 70 23 0.0 0.0 0.00 0.00 0.00 43 1004.6
20260902180017 70 23 0.0 0.0 0.00 0.00 0.00 43 1004.7
20260902174516 69 23 0.0 0.0 0.00 0.00 0.00 46 1004.9
20260902173025 68 23 0.0 0.0 0.00 0.00 0.00 46 1005.0
20260902171509 67 23 0.0 0.0 0.00 0.00 0.00 48 1005.3
20260902170010 66 23 0.0 0.0 0.00 0.00 0.00 51 1005.3
20260902164505 65 318 0.0 0.0 0.00 0.00 0.00 53 1005.4
20260902163001 65 322 0.0 0.0 0.00 0.00 0.00 50 1005.4
20260902161607 64 322 0.0 0.0 0.00 0.00 0.00 52 1005.4
20260902160057 64 322 0.0 0.0 0.00 0.00 0.00 52 1005.6
20260902154553 63 326 0.0 0.0 0.00 0.00 0.00 53 1005.8
20260902153052 63 326 0.0 0.0 0.00 0.00 0.00 54 1006.0
20260902151549 61 314 0.0 0.0 0.00 0.00 0.00 59 1006.1
20260902150049 57 316 0.0 0.0 0.00 0.00 0.00 63 1006.3
20260902144548 57 314 0.0 0.0 0.00 0.00 0.00 64 1006.5
20260902143047 56 327 0.0 0.0 0.00 0.00 0.00 65 1006.4
20260902141547 55 254 0.0 0.0 0.00 0.00 0.00 66 1006.4
20260902140049 55 249 0.0 0.0 0.00 0.00 0.00 66 1006.5
20260902134547 56 248 0.0 0.0 0.00 0.00 0.00 64 1006.5
20260902133043 57 247 0.0 0.0 0.00 0.00 0.00 64 1006.5
20260902131542 57 248 0.0 0.0 0.00 0.00 0.00 63 1006.5
20260902130043 56 247 0.0 0.0 0.00 0.00 0.00 66 1006.2
20260902124542 56 247 0.0 0.0 0.00 0.00 0.00 66 1006.1
20260902123043 56 248 0.0 0.0 0.00 0.00 0.00 66 1006.1
20260902121539 56 247 0.0 0.0 0.00 0.00 0.00 67 1006.1
20260902120038 56 248 0.0 0.0 0.00 0.00 0.00 66 1005.7
20260902114603 57 247 0.0 0.0 0.00 0.00 0.00 65 1005.6
20260902113046 58 247 0.0 0.0 0.00 0.00 0.00 64 1005.7
20260902111534 59 248 0.0 0.0 0.00 0.00 0.00 64 1006.1
20260902110039 58 247 0.0 0.0 0.00 0.00 0.00 66 1006.4
20260902104538 57 248 0.0 0.0 0.00 0.00 0.00 67 1006.6
20260902103031 57 248 0.0 0.0 0.00 0.00 0.00 68 1006.5
20260902101531 56 247 0.0 0.0 0.00 0.00 0.00 68 1006.1
20260902100029 56 247 0.0 0.0 0.00 0.00 0.00 67 1006.1
20260902094530 57 247 0.0 0.0 0.00 0.00 0.00 66 1005.9
20260902093024 57 248 0.0 0.0 0.00 0.00 0.00 63 1006.1
20260902091522 58 247 0.0 0.0 0.00 0.00 0.00 64 1006.0
20260902090021 58 248 0.0 0.0 0.00 0.00 0.00 62 1006.4
20260902084524 61 248 0.0 0.0 0.00 0.00 0.00 59 1006.3
20260902083026 61 248 0.0 0.0 0.00 0.00 0.00 59 1006.0
20260902081516 61 246 0.0 0.0 0.00 0.00 0.00 60 1006.4
20260902080016 61 245 0.0 0.0 0.00 0.00 0.00 59 1006.2
20260902074518 60 245 0.0 0.0 0.00 0.00 0.00 60 1006.3
20260902073011 61 245 0.0 0.0 0.00 0.00 0.00 58 1006.0
20260902071510 62 248 0.0 0.0 0.00 0.00 0.00 57 1006.1
20260902070008 62 239 0.0 0.0 0.00 0.00 0.00 56 1006.0
20260902064505 62 241 0.0 0.0 0.00 0.00 0.00 57 1005.7
20260902063012 62 240 0.0 0.0 0.00 0.00 0.00 57 1005.6
20260902061503 62 239 0.0 0.0 0.00 0.00 0.00 55 1005.5
20260902060001 63 239 0.0 0.0 0.00 0.00 0.00 54 1005.4
20260902054501 62 235 0.0 0.0 0.00 0.00 0.00 53 1005.4
20260902053106 64 237 0.0 0.0 0.00 0.00 0.00 50 1005.3
20260902051600 65 234 0.0 0.0 0.00 0.00 0.00 48 1005.1
20260902050059 65 234 0.0 0.0 0.00 0.00 0.00 47 1005.1
20260902044601 66 234 0.0 0.0 0.00 0.00 0.00 44 1004.8
20260902043102 67 234 0.0 0.0 0.00 0.00 0.00 43 1004.6
20260902041556 68 245 0.0 0.0 0.00 0.00 0.00 44 1004.2
20260902040057 67 311 0.0 0.0 0.00 0.00 0.00 43 1003.9
20260902034605 67 316 0.0 0.0 0.00 0.00 0.00 42 1003.5
20260902033104 68 316 0.0 0.0 0.00 0.00 0.00 42 1003.3
20260902031554 68 316 0.0 0.0 0.00 0.00 0.00 41 1002.9
20260902030054 70 316 0.0 0.0 0.00 0.00 0.00 38 1002.7
20260902024553 72 316 0.0 0.0 0.00 0.00 0.00 37 1002.3
20260902023054 73 316 0.0 0.0 0.00 0.00 0.00 37 1002.0
20260902021552 75 316 0.0 0.0 0.00 0.00 0.00 38 1002.0
20260902020100 76 316 0.0 0.0 0.00 0.00 0.00 37 1001.9
20260902014552 77 316 0.0 0.0 0.00 0.00 0.00 37 1001.9
20260902013051 78 310 0.0 0.0 0.00 0.00 0.00 35 1001.8
20260902011551 79 60 0.0 0.0 0.00 0.00 0.00 34 1001.8
20260902010056 80 60 0.0 0.0 0.00 0.00 0.00 34 1001.7
20260902004551 80 310 0.0 0.0 0.00 0.00 0.00 34 1001.7